Regional Weather Roundup
Issued by NWS

Home | Current Version | Previous Version | Text Only | Print | Product List | Glossary Off
Versions: 1 2 3 4 5 6 7 8 9 10 11 12 13 14 15 16 17 18 19 20 21 22 23 24 25 26 27 28 29 30 31 32 33 34 35 36 37 38 39 40 41 42 43 44 45 46 47 48 49 50

000
ASUS43 KIND 032059
RWRIN

WEATHER ROUNDUP FOR INDIANA
NATIONAL WEATHER SERVICE INDIANAPOLIS IN
500 PM EDT THU SEP 03 2015

NOTE: "FAIR" INDICATES FEW OR NO CLOUDS BELOW 12,000 FEET WITH NO
SIGNIFICANT WEATHER AND/OR OBSTRUCTIONS TO VISIBILITY.

* - STATION DOES NOT REPORT WEATHER SUCH AS PRECIPITATION OR FOG.

+ - STATION NOT QUALITY CONTROLLED BY THE NATIONAL WEATHER SERVICE.
    USE DATA WITH CAUTION...ESPECIALLY DEWPOINT AND RELATIVE
    HUMIDITY OBSERVATIONS.

INZ001>003-010>013-019-020-032200-
NORTHWEST INDIANA

CITY           SKY/WX    TMP DP  RH WIND       PRES   REMARKS
GARY /AIRPORT/ PTSUNNY   91  63  38 W14       29.90F

$$

LMZ046-743>745-032200-
SOUTHERN LAKE MICHIGAN

STATION/POSITION TIME  TEMP    WIND        PRES    WAVE
                       AIR SEA DIR/SP/G            HT
                 (UTC) (F)     (DEG/KT/KT) (MB)    (FT)
MICHIGAN CITY    2000   81     210/  5/  5   N/A
5NW MICH CITY    2000   83 76  260/  4/  4   N/A     1

$$

INZ004-005-014>016-021>024-032200-
NORTH CENTRAL INDIANA

CITY           SKY/WX    TMP DP  RH WIND       PRES   REMARKS
ELKHART        PTSUNNY   86  66  51 W12G17    29.91F
GOSHEN         MOSUNNY   89  68  49 W16       29.91F
SOUTH BEND     NOT AVBL

$$

INZ006>009-017-018-025>027-032200-
NORTHEAST INDIANA

CITY           SKY/WX    TMP DP  RH WIND       PRES   REMARKS
ANGOLA *+      SUNNY     90  70  51 W10       29.92S HX  95
FORT WAYNE     NOT AVBL

$$

INZ028-029-035-036-043>045-051>053-032200-
WEST CENTRAL INDIANA

CITY           SKY/WX    TMP DP  RH WIND       PRES   REMARKS
GREENCASTLE +  MOSUNNY   90  63  40 SW3       29.96F
LAFAYETTE      NOT AVBL
TERRE HAUTE    MOSUNNY   91  65  41 SW7       29.94F

$$

INZ030>032-037>040-046>048-054>057-064-065-032200-
CENTRAL INDIANA

CITY           SKY/WX    TMP DP  RH WIND       PRES   REMARKS
GREENWOOD *+   MOSUNNY   88  61  40 SW5       29.96
INDIANAPOLIS   NOT AVBL
-EAGLE CREEK   MOSUNNY   89  66  46 SW8       29.94F
SHELBYVILLE    MOSUNNY   92  63  38 SW12G17   29.95F

$$

INZ033-034-041-042-049-050-058-059-032200-
EAST CENTRAL INDIANA

CITY           SKY/WX    TMP DP  RH WIND       PRES   REMARKS
MUNCIE         MOSUNNY   86  66  51 NW9       29.95F

$$

INZ060-061-067>069-081>083-085>088-032200-
SOUTHWEST INDIANA

CITY           SKY/WX    TMP DP  RH WIND       PRES   REMARKS
EVANSVILLE     NOT AVBL

$$

INZ062-063-066-070>080-084-089>092-032200-
SOUTH CENTRAL AND SOUTHEAST INDIANA

CITY           SKY/WX    TMP DP  RH WIND       PRES   REMARKS
BLOOMINGTON    SUNNY     90  66  45 W7        29.97F
MADISON *+       N/A     91  59  33 CALM      29.99
SEYMOUR +      SUNNY     95  63  34 SW8       29.95F HX  96

$$



USA.gov is the U.S. government's official web portal to all federal, state and local government web resources and services.